Home > Weather > Tangier > Past weeks

Flag for Morocco Weather for the Past 2 Weeks in Tangier, Morocco

Now
70 °F

Passing clouds.


Feels Like: 70 °F
Forecast: 62 / 75 °F
Wind: 30 mph from East

Location: Tanger Aerodrome

Current Time: May 2, 2016 at 11:56:24 AM

Latest Report: May 2, 2016 at 11:00 AM


Visibility: N/A

Pressure: 29.98 "Hg

Humidity: 50%

Dew Point: 50 °F

Location of TangierLocation

Historic Weather in Tangier — Graph

°F

Tangier Temperature Yesterday

Maximum temperature yesterday: 75 °F (at 1:00 PM)
Minimum temperature yesterday: 59 °F (at 12:00 AM)
Average temperature yesterday: 67 °F

High & Low Weather Summary for the Past Weeks

 TemperatureHumidityPressure
High77 °F (Apr 18, 3:00 PM)94% (Apr 19, 9:00 AM)30.18 "Hg (Apr 19, 9:00 AM)
Low50 °F (Apr 21, 12:00 AM)39% (Apr 26, 6:00 PM)29.83 "Hg (Apr 18, 4:30 PM)
Average63 °F74%29.99 "Hg
* Reported Apr 17 10:00 AM — May 2 10:30 AM, Tangier, Weather by CustomWeather, © 2016

Note: Actual official high and low records may vary slightly from our data, if they occured in-between our weather recording intervals... More about our weather records

Advertising

Tangier Weather History for the Previous 24 Hours

Scroll right to see more
 ConditionsComfort  
Time TempWeatherWind HumidityBarometerVisibility
10:30 AM
Mon, May 2
68 °FPassing clouds.30 mph53%29.98 "HgN/A
10:00 AM68 °FPassing clouds.29 mph53%29.98 "HgN/A
9:30 AM68 °FScattered clouds.25 mph53%29.98 "HgN/A
9:00 AM66 °FScattered clouds.28 mph56%29.98 "HgN/A
8:30 AM64 °FScattered clouds.26 mph60%29.98 "HgN/A
8:00 AM63 °FScattered clouds.26 mph64%29.98 "HgN/A
7:30 AM63 °FScattered clouds.26 mph64%29.95 "HgN/A
6:00 AM61 °FPassing clouds.24 mph72%29.98 "HgN/A
5:30 AM61 °FCool.28 mph72%29.98 "HgN/A
5:00 AM61 °FCool.25 mph72%29.98 "HgN/A
4:30 AM63 °FMild.26 mph68%29.98 "HgN/A
4:00 AM63 °FPassing clouds.23 mph68%29.98 "HgN/A
3:30 AM63 °FPassing clouds.25 mph73%29.98 "HgN/A
3:00 AM63 °FPassing clouds.25 mph73%30.01 "HgN/A
2:30 AM63 °FPassing clouds.25 mph68%30.01 "HgN/A
1:00 AM63 °FPassing clouds.18 mph73%30.04 "HgN/A
12:00 AM64 °FPassing clouds.21 mph64%30.04 "HgN/A
11:30 PM
Sun, May 1
64 °FPassing clouds.20 mph64%30.04 "HgN/A
11:00 PM64 °FPassing clouds.18 mph64%30.07 "HgN/A
10:30 PM63 °FPassing clouds.17 mph68%30.07 "HgN/A
10:00 PM63 °FPassing clouds.18 mph73%30.07 "HgN/A
9:30 PM63 °FPassing clouds.17 mph73%30.07 "HgN/A
9:00 PM64 °FPassing clouds.18 mph64%30.07 "HgN/A
8:30 PM66 °FPassing clouds.20 mph60%30.04 "HgN/A
8:00 PM66 °FPassing clouds.21 mph60%30.04 "HgN/A
7:30 PM68 °FScattered clouds.16 mph56%30.04 "HgN/A
7:00 PM68 °FScattered clouds.20 mph56%30.04 "HgN/A
6:30 PM72 °FScattered clouds.20 mph53%30.04 "HgN/A
6:00 PM72 °FScattered clouds.20 mph53%30.07 "HgN/A
5:30 PM72 °FScattered clouds.17 mph53%30.07 "HgN/A
5:00 PM73 °FScattered clouds.18 mph53%30.07 "HgN/A
4:30 PM73 °FScattered clouds.22 mph53%30.07 "HgN/A
4:00 PM73 °FScattered clouds.20 mph50%30.07 "HgN/A
3:30 PM75 °FScattered clouds.17 mph50%30.07 "HgN/A
3:00 PM75 °FScattered clouds.18 mph54%30.09 "HgN/A
2:30 PM73 °FScattered clouds.22 mph50%30.09 "HgN/A
2:00 PM73 °FScattered clouds.23 mph53%30.09 "HgN/A
1:30 PM75 °FScattered clouds.18 mph47%30.09 "HgN/A
1:00 PM75 °FScattered clouds.20 mph50%30.09 "HgN/A
12:30 PM73 °FScattered clouds.22 mph53%30.09 "HgN/A
12:00 PM73 °FScattered clouds.21 mph53%30.09 "Hg5 mi
11:30 AM72 °FScattered clouds.21 mph57%30.12 "Hg5 mi
11:00 AM70 °FScattered clouds.21 mph60%30.12 "Hg5 mi
Weather by CustomWeather, © 2016

See weather overviewHow to use our weather pages